Location: Caltech
(34.1382°N, 118.1253°W)
Time: 02:37:07
(UTC-07:00)

Tiros 1 despin weight - Visible Passes

Search period start: 22 June 2018 00:00
Search period end: 02 July 2018 00:00
Orbit: 594 x 644 km, 48.2° (Epoch: 22 June)

Date Brightness Start Highest point End Pass type
(mag) Time Alt. Az. Time Alt. Az. Time Alt. Az.
22 Jun ? 00:40:33 10° NNW 00:43:29 16° N 00:46:24 10° NE visible
22 Jun ? 02:21:40 10° NW 02:26:05 39° NNE 02:30:29 10° E visible
22 Jun ? 04:03:19 10° WNW 04:07:40 38° SW 04:11:57 10° SSE visible
22 Jun ? 21:31:02 10° WNW 21:34:51 25° NNW 21:38:44 10° NNE visible
22 Jun ? 23:15:14 10° NW 23:17:46 14° N 23:20:18 10° NNE visible
23 Jun ? 00:57:14 10° NNW 01:00:46 21° NNE 01:04:18 10° ENE visible
23 Jun ? 02:38:17 10° NW 02:41:30 42° NW 02:41:30 42° NW visible
23 Jun?04:29:11S04:29:11S04:18:18WNWvisible
23 Jun ? 21:48:53 10° WNW 21:52:05 18° NNW 21:55:19 10° NNE visible
23 Jun ? 23:32:30 10° NNW 23:35:09 15° N 23:37:48 10° NE visible
24 Jun ? 01:13:47 10° NW 01:17:56 30° NNE 01:17:58 30° NNE visible
24 Jun ? 22:06:45 10° NW 22:09:25 15° N 22:12:06 10° NNE visible
24 Jun ? 23:49:19 10° NNW 23:52:30 18° NNE 23:55:32 10° NE visible
25 Jun ? 01:30:21 10° NW 01:32:32 26° NNW 01:32:32 26° NNW visible
25 Jun ? 20:40:17 10° WNW 20:43:49 21° NNW 20:47:23 10° NNE visible
25 Jun ? 22:24:18 10° NNW 22:26:48 14° N 22:29:18 10° NE visible
26 Jun ? 00:05:55 10° NNW 00:09:43 24° NNE 00:10:30 23° NE visible
26 Jun ? 01:47:03 10° NW 01:47:31 13° NW 01:47:31 13° NW visible
26 Jun ? 20:58:11 10° NW 21:01:06 16° NNW 21:04:02 10° NNE visible
26 Jun ? 22:41:22 10° NNW 22:44:11 16° N 22:47:01 10° NE visible
27 Jun ? 00:22:27 10° NW 00:25:42 32° N 00:25:42 32° N visible
27 Jun ? 21:15:57 10° NW 21:18:27 14° N 21:20:58 10° NNE visible
27 Jun ? 22:58:03 10° NNW 23:01:29 20° NNE 23:03:59 14° NE visible
28 Jun ? 00:39:04 10° NW 00:41:01 24° NW 00:41:01 24° NW visible
28 Jun ? 21:33:17 10° NNW 21:35:51 14° N 21:38:24 10° NE visible
28 Jun ? 23:14:36 10° NW 23:18:39 28° NNE 23:19:24 27° NE visible
29 Jun ? 00:55:52 10° WNW 00:56:26 13° WNW 00:56:26 13° WNW visible
29 Jun ? 21:50:09 10° NNW 21:53:11 17° NNE 21:56:15 10° NE visible
29 Jun ? 23:31:09 10° NW 23:34:54 42° N 23:34:54 42° N visible
30 Jun ? 22:06:44 10° NNW 22:10:26 23° NNE 22:13:26 13° ENE visible
30 Jun ? 23:47:49 10° NW 23:50:28 34° NW 23:50:28 34° NW visible
01 Jul ? 20:42:10 10° NNW 20:44:53 15° N 20:47:35 10° NE visible
01 Jul ? 22:23:17 10° NW 22:27:32 34° NNE 22:29:02 27° ENE visible
